Location: Ferchesar
(52.6477°N, 12.4298°E)
Time: 14:13:17
(UTC+01:00)

deb Explorer IX - Pass Details

Date: 16 December 2021
Orbit: 544 x 1082 km, 38.8° (Epoch: 18 January)

Event Time Altitude Azimuth Distance (km) Brightness Sun altitude
Rises 09:38:56 0° 255° (WSW) 3,456 ? 7.6°
Reaches altitude 10° 09:43:20 10° 227° (SW) 2,366 ? 7.9°
Maximum altitude 09:45:19 12° 206° (SSW) 2,164 ? 8.1°
Drops below altitude 10° 09:47:13 10° 184° (S) 2,229 ? 8.2°
Sets 09:51:03 0° 153° (SSE) 3,011 ? 8.5°
